Regional Weather Roundup
Issued by NWS

Home | Current Version | Previous Version | Graphics & Text | Print | Product List | Glossary On
Versions: 1 2 3 4 5 6 7 8 9 10 11 12 13 14 15 16 17 18 19 20 21 22 23 24 25 26 27 28 29 30 31 32 33 34 35 36 37 38 39 40 41 42 43 44 45 46 47 48 49 50
000
ASUS44 KMEG 231010
RWRTN
TENNESSEE HOURLY STATE WEATHER ROUNDUP
NATIONAL WEATHER SERVICE MEMPHIS TN
400 AM CST THU NOV 23 2017

TNZ002-004-019-021-049-052-054-088>092-231100-
WEST TENNESSEE

CITY           SKY/WX    TMP DP  RH WIND       PRES   REMARKS
MEMPHIS INTL   CLEAR     33  23  66 NE5       30.18F WCI  29
NWS MEMPHIS      N/A     26 N/A N/A MISG        N/A
JACKSON        PTCLDY    23  22  96 CALM      30.19F
DYERSBURG      CLOUDY    27  24  89 CALM      30.21S
SOMERVILLE     CLEAR     25  23  93 CALM      30.17S
COVINGTON      CLEAR     23  21  93 CALM      30.20S
UNION CITY     CLEAR     25  23  93 CALM      30.20S
BOLIVAR        CLEAR     25  23  93 CALM      30.17S
PARIS          CLEAR     25  23  93 N3        30.18F
HUNTINGDON     CLEAR     27  23  86 CALM      30.17F
LEXINGTON      CLEAR     28  23  80 N6        30.18S WCI  22
SELMER         CLEAR     27  23  86 N7        30.16S WCI  19
SAVANNAH       CLEAR     23  23 100 CALM      30.16S FOG
$$

TNZ008-025-027-028-033-062-065-066-231100-
NORTH MIDDLE TENNESSEE

CITY           SKY/WX    TMP DP  RH WIND       PRES   REMARKS
NASHVILLE      CLEAR     27  23  85 CALM      30.17F
PORTLAND         N/A     23  23 100 CALM      30.17R
CLARKSVILLE    CLOUDY    25  19  78 CALM      30.19F
SMYRNA         CLEAR     25  22  88 S3        30.18F
COOKEVILLE     CLEAR     21  21 100 CALM      30.14R
GALLATIN       CLEAR     28  23  80 CALM      30.19F
CROSSVILLE     CLOUDY    27  22  81 N5        30.10R WCI  22
$$

TNZ061-075-076-078-094-096-097-231100-
SOUTH MIDDLE TENNESSEE

CITY           SKY/WX    TMP DP  RH WIND       PRES   REMARKS
FAYETTEVILLE   CLEAR     28  25  86 N8        30.10S WCI  20
TULLAHOMA      CLEAR     28  23  80 N6        30.12R WCI  22
WINCHESTER     CLEAR     25  23  93 CALM      30.11S
MCMINNVILLE    CLEAR     25  23  93 N6        30.14R WCI  18
COLUMBIA       CLEAR     27  23  86 SE3       30.14F
SHELBYVILLE    CLEAR     25  23  93 N8        30.16R WCI  16
$$

TNZ017-018-042-046-047-231100-
NORTHEAST TENNESSEE

CITY           SKY/WX    TMP DP  RH WIND       PRES   REMARKS
TRI CITIES     CLOUDY    25  24  96 CALM      30.12S
ELIZABETHTON   CLEAR     28  23  80 CALM      30.11S
$$

TNZ012-013-036-069-073-074-231100-
CENTRAL EAST TENNESSEE

CITY           SKY/WX    TMP DP  RH WIND       PRES   REMARKS
KNOXVILLE      CLEAR     32  29  88 E3        30.11S
OAK RIDGE      CLEAR     31  28  89 CALM      30.14F
DOWNTOWN KNOXV   N/A     32  30  93 CALM      30.13F
GATLINBURG     CLEAR     27  27 100 CALM      30.12S
MORRISTOWN     MOCLDY    32  25  74 CALM      30.10F
JACKSBORO      CLEAR     27  25  93 CALM      30.18R
$$

TNZ083-085-099-231100-
SOUTHEAST TENNESSEE

CITY           SKY/WX    TMP DP  RH WIND       PRES   REMARKS
CHATTANOOGA    CLEAR     32  28  85 CALM      30.12F
DAYTON           N/A     27  27 100 CALM      30.12S
$$

SKY/WX REPORTED AS FAIR MEANS FEW OR NO CLOUDS BELOW
12 THOUSAND FEET.





USA.gov is the U.S. government's official web portal to all federal, state and local government web resources and services.